When you browse on this site, cookies collect data to enhance your experience and personalize the content and advertising you see.
Visit our Privacy Policy to learn more. By continuing to use the site, you agree to this use of cookies and data.
  • In United States
  • List of Countries
  • For 7 days
  • Water Temperature
  • Satellite Maps
  • Weather Map
  • Weather Widgets
  • user-avatar
    Login

    Hourly Weather Córdoba

    Today, 21 January, Monday

    Time Temperature Precipitation Wind Pressure Humidity
    00:00 +19°C° 0 mm 2 mps 722 mmHg 79%
    01:00 +19°C° 0 mm 2 mps 722 mmHg 80%
    02:00 +19°C° 0 mm 2 mps 722 mmHg 82%
    03:00 +19°C° 0 mm 2 mps 722 mmHg 83%
    04:00 +19°C° 0 mm 2 mps 722 mmHg 84%
    05:00 +19°C° 0 mm 2 mps 722 mmHg 85%
    06:00 +21°C° 0 mm 2 mps 722 mmHg 77%
    07:00 +24°C° 0 mm 3 mps 723 mmHg 69%
    08:00 +26°C° 0 mm 3 mps 723 mmHg 62%
    09:00 +29°C° 0 mm 3 mps 723 mmHg 54%
    10:00 +31°C° 0 mm 3 mps 724 mmHg 47%
    11:00 +34°C° 0 mm 3 mps 724 mmHg 40%
    12:00 +35°C° 0 mm 3 mps 723 mmHg 38%
    13:00 +36°C° 0 mm 3 mps 723 mmHg 35%
    14:00 +37°C° 0 mm 3 mps 722 mmHg 33%
    15:00 +37°C° 0 mm 4 mps 722 mmHg 34%
    16:00 +37°C° 0 mm 4 mps 721 mmHg 35%
    17:00 +36°C° 0 mm 5 mps 721 mmHg 37%
    18:00 +34°C° 0 mm 4 mps 721 mmHg 42%
    19:00 +32°C° 0 mm 4 mps 721 mmHg 47%
    20:00 +29°C° 0 mm 4 mps 721 mmHg 53%
    21:00 +28°C° 0 mm 3 mps 721 mmHg 57%
    22:00 +27°C° 0 mm 3 mps 722 mmHg 62%
    23:00 +26°C° 0 mm 2 mps 722 mmHg 67%

    Tomorrow, 22 January, Tuesday

    Time Temperature Precipitation Wind Pressure Humidity
    00:00 +25°C° 0 mm 2 mps 722 mmHg 68%
    01:00 +25°C° 0 mm 2 mps 722 mmHg 70%
    02:00 +25°C° 0 mm 2 mps 721 mmHg 72%
    03:00 +24°C° 0 mm 2 mps 721 mmHg 73%
    04:00 +24°C° 0 mm 2 mps 721 mmHg 75%
    05:00 +24°C° 0 mm 2 mps 721 mmHg 77%
    06:00 +26°C° 0 mm 3 mps 722 mmHg 70%
    07:00 +28°C° 0 mm 3 mps 722 mmHg 63%
    08:00 +30°C° 0 mm 4 mps 722 mmHg 56%
    09:00 +33°C° 0 mm 4 mps 722 mmHg 50%
    10:00 +34°C° 0 mm 5 mps 722 mmHg 45%
    11:00 +36°C° 0 mm 5 mps 722 mmHg 40%
    12:00 +38°C° 0 mm 6 mps 722 mmHg 38%
    13:00 +39°C° 0 mm 6 mps 721 mmHg 36%
    14:00 +40°C° 0 mm 6 mps 721 mmHg 34%
    15:00 +40°C° 0 mm 6 mps 720 mmHg 34%
    16:00 +40°C° 0 mm 5 mps 720 mmHg 34%
    17:00 +40°C° 0 mm 5 mps 719 mmHg 34%
    18:00 +37°C° 0 mm 4 mps 720 mmHg 40%
    19:00 +34°C° 0 mm 4 mps 720 mmHg 45%
    20:00 +31°C° 0 mm 3 mps 720 mmHg 51%
    21:00 +30°C° 0 mm 3 mps 721 mmHg 57%
    22:00 +29°C° 0 mm 2 mps 721 mmHg 63%
    23:00 +28°C° 0 mm 1 mps 721 mmHg 69%

    Day after tomorrow, 23 January, Wednesday

    Time Temperature Precipitation Wind Pressure Humidity
    00:00 +28°C° 0.5 mm 1 mps 721 mmHg 72%
    01:00 +27°C° 0.5 mm 1 mps 721 mmHg 74%
    02:00 +27°C° 0.5 mm 1 mps 721 mmHg 76%
    03:00 +27°C° 0 mm 1 mps 721 mmHg 77%
    04:00 +27°C° 0 mm 1 mps 721 mmHg 77%
    05:00 +26°C° 0 mm 1 mps 721 mmHg 77%
    06:00 +28°C° 0 mm 1 mps 721 mmHg 74%
    07:00 +29°C° 0 mm 1 mps 722 mmHg 70%
    08:00 +30°C° 0 mm 1 mps 722 mmHg 67%
    09:00 +30°C° 0 mm 2 mps 722 mmHg 66%
    10:00 +31°C° 0 mm 2 mps 722 mmHg 66%
    11:00 +31°C° 0 mm 3 mps 722 mmHg 65%
    12:00 +34°C° 0.1 mm 3 mps 722 mmHg 59%
    13:00 +36°C° 0.1 mm 3 mps 721 mmHg 52%
    14:00 +37°C° 0.1 mm 3 mps 721 mmHg 45%
    15:00 +37°C° 0.1 mm 4 mps 721 mmHg 47%
    16:00 +36°C° 0.1 mm 5 mps 720 mmHg 49%
    17:00 +36°C° 0.1 mm 5 mps 720 mmHg 51%
    18:00 +34°C° 0.5 mm 4 mps 720 mmHg 61%
    19:00 +30°C° 0.5 mm 3 mps 720 mmHg 70%
    20:00 +28°C° 0.5 mm 3 mps 720 mmHg 80%
    21:00 +28°C° 0.2 mm 2 mps 721 mmHg 84%
    22:00 +27°C° 0.2 mm 2 mps 721 mmHg 87%
    23:00 +27°C° 0.2 mm 2 mps 722 mmHg 91%

    24 January, Thursday

    Time Temperature Precipitation Wind Pressure Humidity
    00:00 +26°C° 2.1 mm 1 mps 722 mmHg 92%
    01:00 +26°C° 2.1 mm 1 mps 721 mmHg 94%
    02:00 +23°C° 2.1 mm 0 mps 721 mmHg 95%
    03:00 +25°C° 1.1 mm 1 mps 721 mmHg 95%
    04:00 +25°C° 1.1 mm 2 mps 721 mmHg 95%
    05:00 +25°C° 1.1 mm 3 mps 721 mmHg 96%
    06:00 +25°C° 1.6 mm 3 mps 721 mmHg 94%
    07:00 +25°C° 1.6 mm 2 mps 722 mmHg 93%
    08:00 +25°C° 1.6 mm 2 mps 722 mmHg 92%
    09:00 +28°C° 0.4 mm 3 mps 722 mmHg 81%
    10:00 +30°C° 0.4 mm 3 mps 722 mmHg 71%
    11:00 +33°C° 0.4 mm 4 mps 722 mmHg 61%
    12:00 +34°C° 0 mm 4 mps 721 mmHg 59%
    13:00 +35°C° 0 mm 5 mps 720 mmHg 57%
    14:00 +36°C° 0 mm 6 mps 720 mmHg 55%
    15:00 +36°C° 0 mm 6 mps 719 mmHg 55%
    16:00 +36°C° 0 mm 6 mps 719 mmHg 55%
    17:00 +36°C° 0 mm 6 mps 719 mmHg 55%
    18:00 +34°C° 0 mm 5 mps 719 mmHg 64%
    19:00 +32°C° 0 mm 4 mps 719 mmHg 73%
    20:00 +29°C° 0 mm 3 mps 719 mmHg 82%
    21:00 +29°C° 1 mm 2 mps 719 mmHg 84%
    22:00 +28°C° 1 mm 2 mps 719 mmHg 87%
    23:00 +27°C° 1 mm 1 mps 720 mmHg 90%

    25 January, Friday

    Time Temperature Precipitation Wind Pressure Humidity
    00:00 +27°C° 0 mm 1 mps 719 mmHg 90%
    01:00 +27°C° 0 mm 1 mps 719 mmHg 91%
    02:00 +27°C° 0 mm 1 mps 718 mmHg 91%
    03:00 +26°C° 0 mm 1 mps 718 mmHg 92%
    04:00 +26°C° 0 mm 1 mps 718 mmHg 93%
    05:00 +26°C° 0 mm 1 mps 718 mmHg 94%
    06:00 +27°C° 0 mm 2 mps 718 mmHg 87%
    07:00 +29°C° 0 mm 3 mps 718 mmHg 81%
    08:00 +30°C° 0 mm 4 mps 719 mmHg 74%
    09:00 +34°C° 0 mm 5 mps 719 mmHg 64%
    10:00 +36°C° 0 mm 6 mps 719 mmHg 54%
    11:00 +39°C° 0 mm 7 mps 719 mmHg 44%
    12:00 +41°C° 0 mm 6 mps 718 mmHg 38%
    13:00 +44°C° 0 mm 6 mps 718 mmHg 33%
    14:00 +46°C° 0 mm 6 mps 718 mmHg 27%
    15:00 +45°C° 0 mm 5 mps 717 mmHg 27%
    16:00 +45°C° 0 mm 5 mps 717 mmHg 28%
    17:00 +44°C° 0 mm 4 mps 717 mmHg 28%
    18:00 +42°C° 0 mm 3 mps 717 mmHg 32%
    19:00 +38°C° 0 mm 3 mps 717 mmHg 35%
    20:00 +36°C° 0 mm 2 mps 717 mmHg 39%
    21:00 +34°C° 0.5 mm 3 mps 718 mmHg 56%
    22:00 +32°C° 0.5 mm 5 mps 719 mmHg 73%
    23:00 +28°C° 0.5 mm 6 mps 720 mmHg 89%

    26 January, Saturday

    Time Temperature Precipitation Wind Pressure Humidity
    00:00 +28°C° 1.6 mm 5 mps 720 mmHg 90%
    01:00 +27°C° 1.6 mm 4 mps 720 mmHg 90%
    02:00 +26°C° 1.6 mm 3 mps 720 mmHg 91%
    03:00 +26°C° 1.7 mm 3 mps 721 mmHg 91%
    04:00 +25°C° 1.7 mm 4 mps 721 mmHg 91%
    05:00 +25°C° 1.7 mm 4 mps 722 mmHg 90%
    06:00 +25°C° 0.5 mm 4 mps 722 mmHg 84%
    07:00 +23°C° 0.5 mm 4 mps 723 mmHg 77%
    08:00 +23°C° 0.5 mm 4 mps 723 mmHg 71%
    09:00 +25°C° 0.1 mm 4 mps 723 mmHg 67%
    10:00 +26°C° 0.1 mm 3 mps 723 mmHg 64%
    11:00 +26°C° 0.1 mm 3 mps 723 mmHg 61%
    12:00 +27°C° 0.1 mm 2 mps 723 mmHg 61%
    13:00 +28°C° 0.1 mm 2 mps 723 mmHg 61%
    14:00 +29°C° 0.1 mm 2 mps 723 mmHg 61%
    15:00 +29°C° 0 mm 2 mps 723 mmHg 63%
    16:00 +29°C° 0 mm 2 mps 722 mmHg 65%
    17:00 +29°C° 0 mm 2 mps 722 mmHg 67%
    18:00 +28°C° 0 mm 2 mps 722 mmHg 70%
    19:00 +27°C° 0 mm 1 mps 722 mmHg 73%
    20:00 +26°C° 0 mm 1 mps 722 mmHg 76%
    21:00 +26°C° 0 mm 1 mps 723 mmHg 76%
    22:00 +25°C° 0 mm 2 mps 724 mmHg 76%
    23:00 +25°C° 0 mm 2 mps 724 mmHg 77%
    Show more